[[[{"header":{"parameterUnit":"kt","parameterCategory":2,"dx":1,"dy":1,"la1":30.253999710083008,"la2":30.299108505249023,"lo1":-89.0895004272461,"lo2":-89.04439544677734,"nx":28,"ny":28,"refTime":"2022-10-29T21:00:00:Z","depth":0,"parameterNumber":1,"parameterNumberName":"U-component_of_WINDS"},"data":[4.6265,4.6384,4.6398,4.654,4.6576,4.6674,4.6713,4.6764,4.6809,4.6926,4.6995,4.7019,4.7067,4.7152,4.7226,4.7235,4.7264,4.7296,4.73,4.715,4.713,4.7111,4.7083,4.7303,4.7303,4.7453,4.7455,4.7456,4.6148,4.6186,4.6266,4.6352,4.642,4.6397,4.6463,4.6521,4.6609,4.6665,4.6735,4.6838,4.6922,4.696,4.7041,4.7095,4.7088,4.7116,4.7111,4.7118,4.6958,4.6929,4.7119,4.7119,4.7119,4.7119,4.7119,4.7119,4.5939,4.6011,4.6072,4.6159,4.6206,4.6264,4.6334,4.6364,4.6441,4.653,4.6531,4.6631,4.6688,4.6794,4.6832,4.6909,4.688,4.6914,4.6922,4.693,4.6936,4.6712,4.6923,4.6923,4.6923,4.6922,4.6922,0,4.579,4.5797,4.5876,4.5958,4.6022,4.6087,4.6149,4.6193,4.6211,4.6275,4.6367,4.6422,4.653,4.6616,4.6696,4.673,4.6711,4.6712,4.6735,4.6734,4.6723,4.6727,4.6463,4.6705,4.6704,4.6702,4.6701,4.6701,4.5578,4.5662,4.5733,4.5786,4.5824,4.591,4.5963,4.5974,4.603,4.6107,4.6169,4.6257,4.6328,4.6472,4.6505,4.6585,4.6577,4.6667,4.6589,4.6584,4.6575,4.6569,4.6576,4.6681,4.6684,4.6686,4.6687,0,4.5456,4.548,4.5614,4.5678,4.5696,4.5782,4.5835,4.5907,4.5928,4.603,4.6054,4.6088,4.6177,4.6196,4.6303,4.6309,4.6446,4.6437,4.6425,4.6423,4.6504,4.6495,4.6769,4.6804,4.6579,4.6581,4.6583,0,4.5284,4.5393,4.5422,4.5499,4.562,4.5629,4.5748,4.5778,4.583,4.591,4.5894,4.5969,4.5982,4.606,4.607,4.6185,4.6206,4.6217,4.6218,4.6218,4.6216,4.6245,4.6234,4.6221,4.622,4.6218,4.6217,0,4.5089,4.5235,4.536,4.5397,4.5476,4.5534,4.5569,4.5628,4.5681,4.5752,4.5786,4.5868,4.5913,4.5976,4.5988,4.5934,4.6131,4.6059,4.6142,4.6141,4.6183,4.618,4.6419,4.6216,4.6215,4.6215,4.6214,0,4.4953,4.5028,4.5207,4.5271,4.5309,4.5392,4.5474,4.555,4.5613,4.5625,4.5682,4.5673,4.5778,4.5704,4.5848,4.5773,4.5817,4.5838,4.5845,4.5853,4.577,4.5899,4.6128,4.6151,4.5863,4.586,4.5857,0,4.4722,4.4911,4.492,4.5091,4.518,4.5155,4.5247,4.5305,4.5329,4.5406,4.5433,4.5521,4.5471,4.5501,4.5571,4.56,4.5697,4.5588,4.5695,4.5699,4.5676,4.5887,4.5916,4.6076,4.582,4.5824,4.5827,0,4.4546,4.4644,4.4674,4.4716,4.4796,4.4871,4.4978,4.5069,4.5119,4.5187,4.5274,4.5402,4.5367,4.5418,4.542,4.5491,4.5632,4.5445,4.5447,4.5476,4.5805,4.583,4.5857,4.5617,4.5621,4.5625,4.5798,0,4.433,4.4429,4.4512,4.4608,4.467,4.4779,4.4802,4.4863,4.4858,4.4882,4.5012,4.5066,4.5158,4.5195,4.5193,4.535,4.5326,4.529,4.5218,4.5357,4.5414,4.5438,4.5131,4.5129,4.5127,4.5126,0,0,4.4101,4.4244,4.4253,4.4358,4.441,4.4384,4.4498,4.4546,4.4645,4.468,4.4641,4.4828,4.4873,4.5029,4.5074,4.5113,4.5142,4.5093,4.5292,4.531,4.5327,4.5388,4.5412,4.5123,4.5122,4.5122,4.5121,0,4.4027,4.4078,4.4192,4.4243,4.4318,4.4338,4.4366,4.4435,4.4456,4.4586,4.4561,4.4642,4.4793,4.4843,4.4888,4.5075,4.5051,4.5102,4.5194,4.5274,4.5295,4.5313,4.5377,4.54,4.5117,4.5117,4.5118,0,4.3856,4.3908,4.3967,4.4088,4.4137,4.4231,4.4162,4.4265,4.4334,4.43,4.4429,4.4462,4.4532,4.4678,4.4744,4.471,4.4967,4.4891,4.4902,4.491,4.4988,4.5013,4.5035,4.4744,4.4742,4.4741,0,0,4.3788,4.3881,4.3941,4.4074,4.4107,4.4139,4.4192,4.4194,4.4259,4.4285,4.4327,4.4389,4.4476,4.4534,4.4617,4.4775,4.4788,4.4844,4.4862,4.4876,4.4891,4.4973,4.4998,4.4736,4.4736,4.4735,0,0,4.3755,4.383,4.3816,4.3973,4.4036,4.4103,4.4182,4.4165,4.4243,4.4233,4.4239,4.4256,4.4393,4.4427,4.4354,4.4591,4.452,4.4538,4.4564,4.4587,4.4604,4.4592,4.429,0,0,0,0,0,4.3691,4.3821,4.3807,4.3837,4.399,4.4111,4.413,4.414,4.4089,4.4151,4.4183,4.4155,4.4388,4.4324,4.4353,4.4434,4.4668,4.468,4.4691,4.4762,4.4785,4.4805,0,0,0,0,0,0,4.3703,4.374,4.3803,4.3876,4.391,4.4106,4.4022,4.4028,4.4082,4.4075,4.4149,4.4157,4.4166,4.431,4.4336,4.4412,4.4281,4.4673,4.4683,4.4692,4.477,4.4789,4.4805,0,0,0,0,0,4.3713,4.3742,4.3987,4.3874,4.3904,4.3947,4.4017,4.4021,4.4063,4.4114,4.4121,4.4066,4.4168,4.4191,4.4325,4.44,4.4263,4.4273,4.4679,4.4687,4.4694,4.4779,0,0,0,0,0,0,4.372,4.3747,4.3993,4.4003,4.3826,4.3936,4.3954,4.4016,4.4099,4.4107,4.403,4.4023,4.4172,4.4188,4.4205,4.4396,4.4249,4.4258,4.4264,4.4685,4.4692,4.4697,0,0,0,0,0,0,4.3731,4.3755,4.3998,4.3937,4.394,4.3926,4.3942,4.4058,4.41,4.401,4.4007,4.4026,4.4145,4.4187,4.42,4.4381,4.4237,4.4247,4.4253,4.4257,4.469,4.4695,0,0,0,0,0,0,4.3741,4.3762,4.3935,4.3937,4.3939,4.4045,4.4029,4.4185,4.405,4.4007,4.4038,4.4032,4.4145,4.4158,4.4197,4.4372,4.4379,4.4238,4.4244,4.4249,4.4252,0,0,0,0,0,0,0,4.3749,4.3609,4.3938,4.3937,4.3938,4.409,4.4092,4.4095,4.4049,4.4044,4.4039,4.4035,4.4184,4.4194,4.4205,4.4365,0,0,4.4237,4.4241,0,0,0,0,0,0,0,0,4.36,4.3607,4.3938,4.394,4.3942,4.409,4.4092,4.4094,4.4048,4.4044,4.404,4.4036,4.4187,4.4195,4.4204,0,0,0,0,0,0,0,0,0,0,0,0,0,0,0,4.3938,4.394,0,4.409,4.4092,4.4094,4.4047,4.4044,4.4041,4.4038,4.4189,4.4196,4.4203,0,0,0,0,0,0,0,0,0,0,0,0,0,0,0,0,0,0,0,0,0,0,0,0,0,0,0,0,0,0,0,0,0,0,0,0,0,0,0,0,0,0,0,0,0,0,0,0,0,0,0,0,0,0,0,0,0,0,0,0,0,0,0,0,0,0,0,0,0]}],[{"header":{"parameterUnit":"kt","parameterCategory":2,"dx":1,"dy":1,"la1":30.253999710083008,"la2":30.299108505249023,"lo1":-89.0895004272461,"lo2":-89.04439544677734,"nx":28,"ny":28,"refTime":"2022-10-29T21:00:00:Z","depth":0,"parameterNumber":2,"parameterNumberName":"V-component_of_WINDS"},"data":[3.7322,3.7382,3.7367,3.7429,3.7427,3.7466,3.7476,3.7487,3.7492,3.7537,3.7561,3.7553,3.7552,3.7577,3.7602,3.7597,3.7609,3.7639,3.7629,3.7505,3.7486,3.7469,3.7453,3.7642,3.7642,3.776,3.7761,3.7762,3.7227,3.7225,3.7255,3.7273,3.7297,3.7259,3.727,3.7293,3.733,3.7337,3.736,3.7399,3.7429,3.7418,3.7444,3.7471,3.7454,3.7479,3.7476,3.7477,3.7343,3.7327,3.7492,3.7492,3.7491,3.7491,3.7491,3.7491,3.7052,3.7089,3.7092,3.7123,3.7129,3.7142,3.7175,3.7164,3.7193,3.7218,3.7197,3.7238,3.7243,3.7268,3.7273,3.7305,3.7275,3.7298,3.7304,3.7309,3.7317,3.7147,3.7309,3.7308,3.7308,3.7307,3.7307,0,3.6919,3.6904,3.6932,3.6955,3.6977,3.6995,3.7008,3.7028,3.6994,3.7019,3.7054,3.7072,3.7108,3.7139,3.7161,3.7162,3.7125,3.712,3.7136,3.7146,3.7152,3.7148,3.693,3.7116,3.7114,3.7113,3.7112,3.7112,3.6739,3.6785,3.6783,3.6804,3.6808,3.6844,3.6862,3.6828,3.6849,3.6861,3.6895,3.6927,3.695,3.701,3.6998,3.7025,3.7007,3.7079,3.7011,3.7019,3.7007,3.7004,3.7008,3.7094,3.7096,3.7098,3.7099,0,3.6639,3.6617,3.6684,3.6677,3.6677,3.6727,3.6721,3.6758,3.6744,3.6792,3.6801,3.6781,3.6817,3.6793,3.683,3.6816,3.6896,3.6879,3.6893,3.6888,3.695,3.6944,3.7155,3.7181,3.6986,3.6988,3.6989,0,3.6477,3.654,3.6502,3.6543,3.661,3.6575,3.6643,3.6639,3.6643,3.6681,3.6635,3.6671,3.6636,3.6669,3.6649,3.671,3.6718,3.6711,3.6705,3.6715,3.6716,3.6726,3.6716,3.6691,3.669,3.6689,3.6688,0,3.6323,3.6377,3.6443,3.6452,3.6452,3.6484,3.6485,3.649,3.6509,3.653,3.6541,3.6568,3.6583,3.6604,3.6579,3.6533,3.6654,3.6586,3.6647,3.6647,3.6675,3.6674,3.6867,3.6687,3.6687,3.6686,3.6686,0,3.6189,3.6211,3.631,3.6308,3.6324,3.6368,3.6392,3.6424,3.6433,3.6423,3.644,3.6407,3.646,3.6394,3.6466,3.6413,3.643,3.6428,3.6432,3.6436,3.6362,3.6473,3.666,3.6678,3.6438,3.6436,3.6434,0,3.6017,3.6112,3.6083,3.6179,3.6219,3.6164,3.6212,3.6222,3.6214,3.6246,3.6236,3.6275,3.6221,3.623,3.6268,3.626,3.6328,3.625,3.6296,3.6298,3.6294,3.6466,3.65,3.6622,3.6407,3.641,3.6412,0,3.5881,3.5882,3.5902,3.591,3.5918,3.5953,3.6009,3.6039,3.6062,3.608,3.6124,3.6179,3.6139,3.6155,3.6132,3.6174,3.6281,3.6127,3.6126,3.6154,3.6392,3.6423,3.6444,3.6256,3.6259,3.6261,3.6391,0,3.5681,3.5727,3.5778,3.5801,3.5824,3.5884,3.586,3.5887,3.5862,3.5852,3.5919,3.5923,3.5955,3.5973,3.595,3.6053,3.6032,3.5991,3.5925,3.6038,3.608,3.6097,3.5864,3.5862,3.586,3.5859,0,0,3.5521,3.5587,3.5555,3.5608,3.5626,3.5569,3.5635,3.5646,3.567,3.5683,3.5646,3.5723,3.5729,3.5813,3.5846,3.586,3.5876,3.5838,3.5985,3.5999,3.6012,3.6057,3.6075,3.5856,3.5855,3.5854,3.5854,0,3.5443,3.545,3.5516,3.5526,3.5539,3.5525,3.5541,3.5545,3.5541,3.5608,3.5561,3.5599,3.5664,3.5674,3.5689,3.5827,3.579,3.5839,3.5921,3.5968,3.5984,3.5999,3.6047,3.6065,3.585,3.585,3.585,0,3.5304,3.5307,3.5337,3.5376,3.5384,3.5429,3.5353,3.5405,3.5437,3.5374,3.5441,3.5441,3.5455,3.5538,3.5575,3.5542,3.5713,3.5656,3.5666,3.567,3.5714,3.5734,3.5752,3.5519,3.5518,3.5517,0,0,3.524,3.5284,3.5277,3.5357,3.5366,3.5347,3.5369,3.5347,3.536,3.5366,3.5365,3.538,3.5416,3.5442,3.5475,3.5571,3.557,3.5616,3.5632,3.5645,3.5655,3.5703,3.5723,3.5513,3.5513,3.5513,0,0,3.521,3.5205,3.5177,3.5268,3.5282,3.5281,3.5331,3.5297,3.5326,3.5316,3.5281,3.5284,3.5362,3.5364,3.5313,3.5451,3.5387,3.5399,3.5447,3.5467,3.5482,3.548,3.5237,0,0,0,0,0,3.5118,3.5205,3.518,3.5192,3.5242,3.5295,3.5301,3.5274,3.5228,3.5268,3.5261,3.522,3.5328,3.5282,3.5294,3.5352,3.5461,3.5471,3.5479,3.5564,3.5585,3.5602,0,0,0,0,0,0,3.5123,3.5137,3.5178,3.5181,3.5192,3.5292,3.5208,3.5203,3.5223,3.5214,3.5223,3.5221,3.5199,3.5274,3.5286,3.5341,3.5233,3.5465,3.5473,3.548,3.5571,3.5588,3.5603,0,0,0,0,0,3.5126,3.5138,3.5226,3.518,3.5189,3.5174,3.5204,3.5199,3.5215,3.5206,3.5202,3.5193,3.5201,3.5209,3.5281,3.5336,3.5225,3.5229,3.547,3.5476,3.5482,3.558,0,0,0,0,0,0,3.5129,3.5134,3.5227,3.5229,3.5145,3.5168,3.517,3.5197,3.5204,3.5202,3.5173,3.5166,3.5204,3.5209,3.5216,3.5336,3.5218,3.5223,3.5225,3.5475,3.5479,3.5484,0,0,0,0,0,0,3.5127,3.5136,3.5228,3.5186,3.5183,3.5162,3.5165,3.5222,3.5205,3.5171,3.5166,3.517,3.5195,3.521,3.5215,3.5306,3.5213,3.5217,3.522,3.5222,3.5479,3.5482,0,0,0,0,0,0,3.513,3.5137,3.5185,3.5183,3.518,3.5199,3.5213,3.5266,3.5169,3.5172,3.516,3.5155,3.5197,3.5201,3.5215,3.5304,3.5305,3.5213,3.5216,3.5218,3.522,0,0,0,0,0,0,0,3.5133,3.509,3.5216,3.5181,3.5178,3.5246,3.5247,3.5247,3.5168,3.5164,3.5161,3.5157,3.5189,3.5194,3.5198,3.5303,0,0,3.5213,3.5215,0,0,0,0,0,0,0,0,3.5087,3.509,3.5216,3.5216,3.5217,3.5246,3.5247,3.5247,3.5168,3.5165,3.5161,3.5159,3.519,3.5194,3.5198,0,0,0,0,0,0,0,0,0,0,0,0,0,0,0,3.5216,3.5216,0,3.5246,3.5247,3.5247,3.5167,3.5165,3.5162,3.516,3.5191,3.5194,3.5197,0,0,0,0,0,0,0,0,0,0,0,0,0,0,0,0,0,0,0,0,0,0,0,0,0,0,0,0,0,0,0,0,0,0,0,0,0,0,0,0,0,0,0,0,0,0,0,0,0,0,0,0,0,0,0,0,0,0,0,0,0,0,0,0,0,0,0,0,0]}]]]